Terminal Aerodrome Forecast
Issued by NWS Green Bay, WI

Home | Current Version | Previous Version | Text Only | Print | Product List | Glossary Off
Versions: 1 2 3 4 5 6 7 8 9 10 11 12 13 14 15 16 17 18 19 20 21 22 23 24 25 26 27 28 29 30 31 32 33

493
FTUS43 KGRB 212233 AAC
TAFGRB
TAF AMD
KGRB 212233Z 2123/2218 24011KT P6SM SCT040 SCT120
      TEMPO 2123/2124 5SM -TSRA BKN040CB
     FM220600 27004KT 4SM BR SCT007 SCT120
      TEMPO 2206/2210 1SM BR SCT004 SCT120
     FM221000 32004KT 5SM BR SCT150
     FM221300 32004KT P6SM SCT150=

USA.gov is the U.S. government's official web portal to all federal, state and local government web resources and services.